Location: Berlin
(38.3226°N, 75.2177°W)
Time: 15:12:00
(UTC+00:00)

ARGOS Delta rocket - Pass Details

Date: 26 October 2020
Orbit: 636 x 837 km, 96.5° (Epoch: 24 November)

Event Time Altitude Azimuth Distance (km) Brightness Sun altitude
Rises 09:55:17 0° 11° (N) 3,340 7.4 -17.5°
Reaches altitude 10° 09:57:37 10° 12° (NNE) 2,423 6.7 -17.0°
Maximum altitude 10:03:03 85° 100° (E) 842 4.2 -15.9°
Drops below altitude 10° 10:08:31 10° 190° (S) 2,440 6.5 -14.9°
Sets 10:10:53 0° 191° (S) 3,365 7.3 -14.4°
